Location: Härggis
(46.9540°N, 8.4897°E)
Time: 20:47:35
(UTC+00:00)

ASTEX 1 - Pass Details

Date: 27 May 2022
Orbit: 721 x 741 km, 92.7° (Epoch: 02 July)

Event Time Altitude Azimuth Distance (km) Brightness Sun altitude
Rises 00:09:43 0° 359° (N) 3,150 8.1 -21.0°
Reaches altitude 10° 00:12:06 10° 353° (N) 2,227 6.9 -20.9°
Maximum altitude 00:16:43 42° 283° (WNW) 1,028 4.1 -20.7°
Enters shadow 00:18:11 33° 242° (WSW) 1,205 4.2 -20.7°
